User: anonymous   Login
Location: Libas
(9.8833°N, 125.9833°E)
Time: 16:09:02
(UTC+00:00)
Language:

CZ-4C R/B - Orbit

View from above orbital plane
View from above orbital plane
View from above satellite
View from above satellite

Ground track
Ground track

The orbit data is extracted from the following two-line orbital elements,

1 32290U 07055B   21019.45117020  .00001888  00000-0  47818-4 0  9993
2 32290  97.6701 190.6599 0060580 123.3737 237.3326 15.39297059733405
Epoch (UTC): 19 January 2021 10:49:41
Eccentricity: 0.0060580
inclination: 97.6701°
perigee height: 407 km
apogee height: 489 km
right ascension of ascending node: 190.6599°
argument of perigee: 123.3737°
revolutions per day: 15.39297059
mean anomaly at epoch: 237.3326°
orbit number at epoch: 73340

The dashed part of the orbit path shows where the satellite is in the earth's shadow,  

DLR